TimeAQTT,TemperatureF,Dew PointF,Humidity,Sea Level PressureIn,VisibilityMPH,Wind Direction,Wind SpeedMPH,Gust SpeedMPH,PrecipitationIn,Events,Conditions,WindDirDegrees,DateUTC
12:00 AM,33.8,26.6,75,29.89,-9999.0,East,17.9,-,N/A,,Clear,100,2013-01-17 19:00:00
12:30 AM,33.8,24.8,70,29.89,-9999.0,ESE,17.9,-,N/A,,Clear,110,2013-01-17 19:30:00
1:00 AM,32.0,24.8,75,29.89,-9999.0,East,20.1,-,N/A,,Clear,100,2013-01-17 20:00:00
1:30 AM,32.0,24.8,75,29.89,-9999.0,ESE,15.7,-,N/A,,Clear,110,2013-01-17 20:30:00
2:00 AM,36,24,48,29.89,6,SE,15.7,,,,Partly Cloudy,140,2013-01-17 21:00:00
2:00 AM,32.0,24.8,75,29.89,-9999.0,East,15.7,-,N/A,,Clear,90,2013-01-17 21:00:00
2:30 AM,32.0,26.6,80,29.89,-9999.0,East,13.4,-,N/A,,Clear,80,2013-01-17 21:30:00
3:00 AM,32.0,24.8,75,29.89,-9999.0,East,17.9,-,N/A,,Clear,90,2013-01-17 22:00:00
3:30 AM,30.2,24.8,80,29.89,-9999.0,East,13.4,-,N/A,,Clear,80,2013-01-17 22:30:00
4:00 AM,30.2,24.8,80,29.89,-9999.0,East,13.4,-,N/A,,Clear,80,2013-01-17 23:00:00
4:30 AM,30.2,24.8,80,29.89,-9999.0,ENE,15.7,-,N/A,,Clear,60,2013-01-17 23:30:00
5:00 AM,35,22,47,29.89,6,SE,15.7,,,,Partly Cloudy,140,2013-01-18 00:00:00
5:00 AM,28.4,24.8,86,29.89,-9999.0,ENE,15.7,-,N/A,,Clear,70,2013-01-18 00:00:00
5:30 AM,28.4,23.0,80,29.89,-9999.0,ENE,15.7,-,N/A,,Clear,60,2013-01-18 00:30:00
6:00 AM,28.4,23.0,80,29.89,-9999.0,ENE,13.4,-,N/A,,Clear,60,2013-01-18 01:00:00
6:30 AM,28.4,23.0,80,29.89,-9999.0,ENE,13.4,-,N/A,,Clear,70,2013-01-18 01:30:00
7:00 AM,28.4,23.0,80,29.89,-9999.0,NE,11.2,-,N/A,,Clear,50,2013-01-18 02:00:00
7:30 AM,26.6,23.0,86,29.89,-9999.0,NE,13.4,-,N/A,,Clear,50,2013-01-18 02:30:00
8:00 AM,32,23,60,29.92,6,NNE,6.7,,,,Mostly Cloudy,20,2013-01-18 03:00:00
8:00 AM,26.6,23.0,86,29.89,-9999.0,NNE,13.4,-,N/A,,Clear,30,2013-01-18 03:00:00
8:30 AM,26.6,23.0,86,29.89,-9999.0,NE,11.2,-,N/A,,Clear,50,2013-01-18 03:30:00
9:00 AM,26.6,23.0,86,29.92,-9999.0,NNE,8.9,-,N/A,,Clear,30,2013-01-18 04:00:00
9:30 AM,26.6,23.0,86,29.92,-9999.0,NNE,11.2,-,N/A,,Clear,30,2013-01-18 04:30:00
10:00 AM,28.4,23.0,80,29.92,-9999.0,NNE,11.2,-,N/A,,Clear,20,2013-01-18 05:00:00
10:30 AM,28.4,23.0,80,29.92,-9999.0,NE,11.2,-,N/A,,Clear,40,2013-01-18 05:30:00
11:00 AM,31,25,71,29.95,6,North,2.2,,,,Clear,0,2013-01-18 06:00:00
11:00 AM,30.2,24.8,80,29.92,-9999.0,NE,11.2,-,N/A,,Clear,40,2013-01-18 06:00:00
11:30 AM,32.0,24.8,75,29.92,-9999.0,ENE,8.9,-,N/A,,Clear,60,2013-01-18 06:30:00
12:00 PM,33.8,24.8,70,29.92,-9999.0,NE,8.9,-,N/A,,Clear,50,2013-01-18 07:00:00
12:30 PM,35.6,24.8,65,29.95,-9999.0,NNE,6.7,-,N/A,,Clear,30,2013-01-18 07:30:00
1:00 PM,37.4,24.8,60,29.95,-9999.0,North,4.5,-,N/A,,Clear,350,2013-01-18 08:00:00
1:30 PM,37.4,26.6,65,29.92,-9999.0,NW,11.2,-,N/A,,Clear,320,2013-01-18 08:30:00
2:00 PM,28,22,72,29.98,6,North,8.9,,,,Clear,0,2013-01-18 09:00:00
2:00 PM,37.4,26.6,65,29.92,-9999.0,NW,11.2,-,N/A,,Clear,310,2013-01-18 09:00:00
2:30 PM,37.4,26.6,65,29.92,-9999.0,NW,11.2,-,N/A,,Clear,320,2013-01-18 09:30:00
3:00 PM,39.2,24.8,56,29.92,-9999.0,NNW,11.2,-,N/A,,Clear,330,2013-01-18 10:00:00
3:30 PM,37.4,26.6,65,29.92,-9999.0,NNW,13.4,-,N/A,,Clear,340,2013-01-18 10:30:00
4:00 PM,37.4,24.8,60,29.92,-9999.0,North,13.4,-,N/A,,Clear,350,2013-01-18 11:00:00
4:30 PM,35.6,26.6,70,29.92,-9999.0,North,13.4,-,N/A,,Clear,10,2013-01-18 11:30:00
5:00 PM,29,24,73,29.99,6,North,20.1,,,,Overcast,0,2013-01-18 12:00:00
5:00 PM,35.6,24.8,65,29.95,-9999.0,North,11.2,-,N/A,,Clear,10,2013-01-18 12:00:00
5:30 PM,33.8,24.8,70,29.95,-9999.0,NNE,15.7,-,N/A,,Clear,30,2013-01-18 12:30:00
6:00 PM,32.0,24.8,75,29.98,-9999.0,North,11.2,-,N/A,,Clear,360,2013-01-18 13:00:00
6:30 PM,30.2,24.8,80,29.98,-9999.0,NNW,8.9,-,N/A,,Clear,340,2013-01-18 13:30:00
7:00 PM,30.2,24.8,80,29.98,-9999.0,North,8.9,-,N/A,,Clear,350,2013-01-18 14:00:00
7:30 PM,28.4,24.8,86,30.01,-9999.0,North,8.9,-,N/A,,Clear,360,2013-01-18 14:30:00
8:00 PM,28,23,76,30.02,6,North,6.7,,,,Clear,0,2013-01-18 15:00:00
8:00 PM,28.4,24.8,86,30.01,-9999.0,NNW,8.9,-,N/A,,Clear,340,2013-01-18 15:00:00
8:30 PM,28.4,24.8,86,30.01,-9999.0,North,8.9,-,N/A,,Clear,350,2013-01-18 15:30:00
9:00 PM,26.6,24.8,93,30.04,-9999.0,North,8.9,-,N/A,,Clear,360,2013-01-18 16:00:00
9:30 PM,26.6,24.8,93,30.04,-9999.0,North,8.9,-,N/A,,Clear,350,2013-01-18 16:30:00
10:00 PM,24.8,23.0,93,30.04,-9999.0,NW,6.7,-,N/A,,Clear,320,2013-01-18 17:00:00
10:30 PM,24.8,23.0,93,30.04,-9999.0,North,6.7,-,N/A,,Clear,350,2013-01-18 17:30:00
11:00 PM,27,22,74,30.04,6,East,2.2,,,,Clear,90,2013-01-18 18:00:00
11:00 PM,24.8,23.0,93,30.04,-9999.0,NNE,6.7,-,N/A,,Clear,20,2013-01-18 18:00:00
11:30 PM,23.0,23.0,100,30.04,3.1,North,6.7,-,N/A,,Scattered Clouds,360,2013-01-18 18:30:00